Volver al catálogo

TRISAT-R

LostCienciaMEO
NORAD 53108·PAYLOAD·🇸🇮 Slovenia

Lanzado Jul 13, 2022 desde Guiana Space Centre

Loading…

Próximos Pases (próximas 24 horas)

TLE

ObsoletoSource: Space-Track

Época: Feb 3, 2023, 15:21 UTC

1 53108U 22080D   23034.63990194 -.00000003  00000-0  00000+0 0  9995
2 53108  70.1725   6.2232 0013087 218.2793 141.6938  6.42152542 13071

Sigue TRISAT-R en tiempo real con AllMySat

Download on the App Store